Location: Newark
(48.3831°N, 4.1956°E)
Time: 15:21:25
(UTC+00:00)

Envisat - Visible Passes

Search period start: 12 November 2019 00:00
Search period end: 22 November 2019 00:00
Orbit: 764 x 766 km, 98.1° (Epoch: 12 November)

Date Brightness Start Highest point End Pass type
(mag) Time Alt. Az. Time Alt. Az. Time Alt. Az.
12 Nov 6.0 05:21:56 10° NE 05:25:05 16° E 05:28:13 10° SE visible
12 Nov 3.7 16:39:38 10° SE 16:44:05 31° ENE 16:48:32 10° N visible
12 Nov 4.4 18:18:15 10° SSW 18:23:00 40° W 18:27:47 10° NNW visible
13 Nov 3.1 17:41:01 10° SSE 17:46:06 82° WSW 17:51:14 10° NNW visible
13 Nov 6.2 19:24:09 10° WSW 19:25:56 12° W 19:27:45 10° WNW visible
14 Nov 5.4 05:46:35 10° NE 05:50:53 27° E 05:55:07 10° SSE visible
14 Nov 3.2 17:04:31 10° SE 17:09:24 50° ENE 17:14:20 10° N visible
14 Nov 5.2 18:44:36 10° SSW 18:48:42 24° W 18:52:50 10° NW visible
15 Nov 6.2 05:11:20 10° ENE 05:13:39 13° E 05:15:58 10° ESE visible
15 Nov 3.9 18:06:45 10° S 18:11:41 49° W 18:16:37 10° NNW visible
16 Nov 4.4 06:11:41 10° NNE 06:16:34 44° E 06:21:23 10° S visible
16 Nov 2.9 17:29:45 10° SSE 17:34:50 82° ENE 17:39:57 10° NNW visible
16 Nov 5.9 19:11:41 10° WSW 19:14:30 15° W 19:17:21 10° NW visible
17 Nov 5.8 05:35:35 10° NE 05:39:30 22° E 05:43:22 10° SE visible
17 Nov 3.4 16:53:28 10° SE 16:58:12 41° ENE 17:02:57 10° N visible
17 Nov 4.9 18:32:54 10° SSW 18:37:20 30° W 18:41:48 10° NNW visible
18 Nov 6.5 05:01:42 10° ENE 05:02:13 10° E 05:02:43 10° E visible
18 Nov 3.5 17:55:20 10° S 18:00:21 61° W 18:05:25 10° NNW visible
19 Nov 4.9 06:00:33 10° NNE 06:05:13 35° E 06:09:52 10° SSE visible
19 Nov 2.9 17:18:33 10° SSE 17:23:35 67° ENE 17:28:38 10° N visible
19 Nov 5.6 18:59:37 10° SW 19:03:06 18° W 19:06:36 10° NW visible
20 Nov 6.0 05:24:41 10° NE 05:28:05 18° E 05:31:28 10° SE visible
20 Nov 3.6 16:42:28 10° SE 16:47:00 34° ENE 16:51:33 10° N visible
20 Nov 4.5 18:21:18 10° SSW 18:25:59 37° W 18:30:41 10° NNW visible
21 Nov 3.2 17:43:59 10° S 17:49:04 76° WSW 17:54:10 10° NNW visible
21 Nov 6.2 19:27:50 10° W 19:28:58 11° W 19:30:05 10° WNW visible
